Hilton Head Island, SC

3:56 AM EST on December 07, 2016 (GMT -0500)
Hilton Head

Weather History for KHXD - April, 2014

Change the Weather History Date:

Saturday, April 5, 2014

  Actual Average Record
Temperature  
Mean Temperature 72 °F -  
Max Temperature 77 °F 73 °F 89 °F (1978)
Min Temperature 66 °F 52 °F 37 °F (1961)
Cooling Degree Days 6    
Growing Degree Days 22 (Base 50)    
Moisture  
Dew Point 60 °F    
Average Humidity 71    
Maximum Humidity 88    
Minimum Humidity 40    
Precipitation  
Precipitation 0.00 in - - ()
Sea Level Pressure  
Sea Level Pressure 29.98 in    
Wind  
Wind Speed 9 mph (SSW)    
Max Wind Speed 14 mph    
Max Gust Speed 20 mph    
Visibility 10 miles    
Events      
Averages and records for this station are not official NWS values.
T = Trace of Precipitation, MM = Missing Value Source: NWS Daily Summary

Daily Weather History Graph

Daily Weather History Graph

Search for Another Location

Airport or City:

Trip Planner

Search our weather history database for the weather conditions in past years. The results will help you decide how hot, cold, wet, or windy it might be!

Date:

Astronomy

Apr. 05, 2014 Rise Set
Actual Time 7:05 AM EDT 7:45 PM EDT
Civil Twilight 6:41 AM EDT 8:10 PM EDT
Nautical Twilight 6:12 AM EDT 8:39 PM EDT
Astronomical Twilight 5:42 AM EDT 9:09 PM EDT
Moon 11:24 AM EDT (4/5) 12:42 AM EDT (4/5)
Length of Visible Light 13h 28m
Length of Day
12h 39m
Waxing Crescent, 34% of the Moon is Illuminated
Apr 5
Waxing Crescent
Apr 7
First Quarter
Apr 15
Full
Apr 22
Last Quarter
Apr 29
New

Hourly Weather History & Observations

Time (EDT) Temp. Dew Point Humidity Pressure Visibility Wind Dir Wind Speed Gust Speed Precip Events Conditions
12:15 AM 68.0 °F 62.6 °F 83% 29.96 in 10.0 mi South 11.5 mph - 0.00 in   Clear
12:35 AM 68.0 °F 62.6 °F 83% 29.96 in 10.0 mi South 13.8 mph 19.6 mph 0.00 in   Clear
12:55 AM 69.8 °F 62.6 °F 78% 29.95 in 10.0 mi South 11.5 mph 17.3 mph 0.00 in   Clear
1:15 AM 69.8 °F 62.6 °F 78% 29.96 in 10.0 mi South 11.5 mph 19.6 mph 0.00 in   Clear
1:55 AM 69.8 °F 62.6 °F 78% 29.96 in 10.0 mi South 11.5 mph 17.3 mph 0.00 in   Clear
2:15 AM 69.8 °F 62.6 °F 78% 29.96 in 10.0 mi South 9.2 mph - 0.00 in   Clear
2:35 AM 69.8 °F 62.6 °F 78% 29.96 in 10.0 mi SSW 5.8 mph - 0.00 in   Clear
2:55 AM 68.0 °F 62.6 °F 83% 29.96 in 10.0 mi South 6.9 mph - 0.00 in   Clear
3:15 AM 66.2 °F 62.6 °F 88% 29.96 in 10.0 mi SSW 6.9 mph - 0.00 in   Clear
3:35 AM 68.0 °F 62.6 °F 83% 29.96 in 10.0 mi SSW 8.1 mph - 0.00 in   Clear
3:55 AM 68.0 °F 62.6 °F 83% 29.96 in 10.0 mi SW 5.8 mph - 0.00 in   Clear
4:15 AM 66.2 °F 60.8 °F 83% 29.96 in 10.0 mi SW 6.9 mph - 0.00 in   Clear
4:55 AM 66.2 °F 60.8 °F 83% 29.97 in 10.0 mi WSW 4.6 mph - 0.00 in   Clear
5:15 AM 66.2 °F 60.8 °F 83% 29.97 in 10.0 mi West 4.6 mph - 0.00 in   Clear
6:50 AM 68.0 °F 42.8 °F 40% 29.97 in 10.0 mi WSW 5.8 mph - N/A   Mostly Cloudy
7:50 AM 68.0 °F 42.8 °F 40% 2.99 in 10.0 mi WSW 5.8 mph - N/A   Scattered Clouds
8:50 AM 68.0 °F 42.8 °F 40% 29.99 in 10.0 mi WSW 5.8 mph - N/A   Scattered Clouds
9:50 AM 68.0 °F 42.8 °F 40% 30.00 in 9.0 mi WSW 6.9 mph - N/A   Scattered Clouds
10:50 AM 71.6 °F 60.8 °F 69% 30.02 in 9.0 mi West 6.9 mph - N/A   Clear
11:50 AM 77.0 °F 59.0 °F 54% 30.02 in 8.0 mi North 6.9 mph - N/A   Clear
12:50 PM 77.0 °F 62.6 °F 61% 30.01 in 8.0 mi NW 6.9 mph - N/A   Scattered Clouds
1:50 PM 73.4 °F 59.0 °F 61% 30.00 in 9.0 mi South 5.8 mph - N/A   Partly Cloudy
2:50 PM 75.2 °F 59.0 °F 57% 29.98 in 9.0 mi SSW 10.4 mph - N/A   Scattered Clouds
3:50 PM 77.0 °F 59.0 °F 54% 29.95 in 8.0 mi SSW 6.9 mph - N/A   Scattered Clouds
5:50 PM 71.6 °F 59.0 °F 64% 29.95 in 10.0 mi SSW 6.9 mph - N/A   Scattered Clouds
6:50 PM 71.6 °F 59.0 °F 64% 29.97 in 10.0 mi SSW 11.5 mph - N/A   Partly Cloudy
7:50 PM 69.8 °F 59.0 °F 68% 29.98 in 10.0 mi SSW 8.1 mph - N/A   Clear
8:15 PM 69.8 °F 60.8 °F 73% 29.99 in 10.0 mi South 6.9 mph - 0.00 in   Clear
8:35 PM 69.8 °F 60.8 °F 73% 29.99 in 10.0 mi South 5.8 mph - 0.00 in   Clear
8:55 PM 68.0 °F 60.8 °F 78% 30.00 in 10.0 mi South 4.6 mph - 0.00 in   Clear
9:15 PM 68.0 °F 60.8 °F 78% 30.00 in 10.0 mi South 6.9 mph - 0.00 in   Clear
9:55 PM 69.8 °F 60.8 °F 73% 30.02 in 10.0 mi South 9.2 mph - 0.00 in   Scattered Clouds
10:15 PM 69.8 °F 60.8 °F 73% 30.02 in 10.0 mi South 9.2 mph 16.1 mph 0.00 in   Mostly Cloudy
10:35 PM 69.8 °F 62.6 °F 78% 30.02 in 10.0 mi South 9.2 mph - 0.00 in   Scattered Clouds
10:55 PM 69.8 °F 64.4 °F 83% 30.03 in 10.0 mi SSW 6.9 mph - 0.00 in   Scattered Clouds
11:15 PM 69.8 °F 64.4 °F 83% 30.02 in 10.0 mi SSW 8.1 mph - 0.00 in   Partly Cloudy
11:35 PM 69.8 °F 64.4 °F 83% 30.02 in 10.0 mi SSW 6.9 mph - 0.00 in   Partly Cloudy
11:55 PM 69.8 °F 64.4 °F 83% 30.03 in 10.0 mi SW 6.9 mph - 0.00 in   Scattered Clouds